Regional Weather Roundup
Issued by NWS Newport/Morehead, NC

Current Version | Previous Version | Text Only | Print | Product List | Glossary On
Versions: 1 2 3 4 5 6 7 8 9 10 11 12 13 14 15 16 17 18 19 20 21 22 23 24 25 26 27 28 29 30 31 32 33 34 35 36 37 38 39 40 41 42 43 44 45 46 47 48 49 50
000
ASUS42 KMHX 260613
RWRMHX
WEATHER ROUNDUP FOR EASTERN NORTH CAROLINA
NATIONAL WEATHER SERVICE NEWPORT/MOREHEAD CITY NC
100 AM EST SUN FEB 26 2017

NOTE: "FAIR" INDICATES FEW OR NO CLOUDS BELOW 12,000 FEET
WITH NO SIGNIFICANT WEATHER AND/OR OBSTRUCTIONS TO VISIBILITY

NCZ015>017-031-032-045>047-102-103-260700-
NORTH COAST

CITY           SKY/WX    TMP DP  RH WIND       PRES   REMARKS
EDENTON        CLEAR     57  30  35 NW14G21   29.86R
ELIZABETH CITY CLEAR     55  30  38 NW9       29.84R
KITTY HAWK     NOT AVBL
MANTEO         PTCLDY    54  46  76 NE9       29.83R

$$

NCZ045>047-081-094-103-104-260700-
CENTRAL COAST

CITY           SKY/WX    TMP DP  RH WIND       PRES   REMARKS
FRISCO         PTCLDY    59  49  69 VRB7      29.82R

$$

NCZ095-097-098-100-101-260700-
SOUTHERN COAST

CITY           SKY/WX    TMP DP  RH WIND       PRES   REMARKS
BEAUFORT       CLEAR     60  39  45 N10       29.84R
CEDAR ISLAND   NOT AVBL
JACKSONVILLE   CLEAR     58  25  28 NW10      29.86R
PINEY ISLAND   CLEAR    N/A N/A N/A NW13G25   29.83R
WILMINGTON     CLEAR     59  24  26 NW12      29.88R


$$

NCZ011>013-027>030-043-044-078>080-089-090>093-098-260700-
COASTAL PLAIN

CITY           SKY/WX    TMP DP  RH WIND       PRES   REMARKS
AHOSKIE          N/A     50  21  31 NW5       29.88R
CLINTON        CLEAR     55  29  36 NW5       29.90R
ELIZABETHTOWN  CLEAR     57  24  27 NW8       29.90R
GOLDSBORO      CLEAR     56  21  25 NW10      29.87R
GREENVILLE     CLEAR     55  28  35 NW7       29.90R
HAVELOCK       NOT AVBL
KENANSVILLE    CLEAR     55  27  33 NW7       29.89R
KINSTON        CLEAR     56  23  28 NW9       29.88R
NEW BERN       CLEAR     56  35  45 NW7       29.86R
RICHLANDS      CLEAR     55  26  32 CALM      29.88R
ROCKY MOUNT    CLEAR     51  26  37 NW10G21   29.89R
WASHINGTON     CLEAR     56  28  34 NW8       29.86R
WHITEVILLE     CLEAR     57  25  28 CALM      29.90R

$$

AMZ130-135-150-152-154-156-158-170-250-252-270-ANZ085-086-088-633-658-670-260700-
MARINE OBSERVATIONS

STATION/POSITION TIME  TEMP    WIND        PRES    WAVE   SWELL
                       AIR SEA DIR/SP/G            HT/PER HT/PER
                 (UTC) (F)     (DEG/KT/KT) (MB)    (FT/S) (FT/S)
CHESAPEAKE LIGHT NOT AVBL
64 E VA BEACH    0550   53 52  350/ 12/ 16 1008.4    6/11   5/11
DUCK             0548   52 48  340/ 11/ 11 1009.2
2 E DUCK         0600      50                N/A     3/11   2/11
OREGON INLET     0542   51 62  360/  7/  9 1009.5
13E OREGON INLT  NOT AVBL
HATTERAS CG      0548   61 64  330/ 13/ 15 1009.3
DIAMOND BUOY     0550   65 74  350/ 23/ 29 1008.8    8/ 7   5/10
CAPE LOOKOUT     0600   62     350/ 16/ 19 1010.3
BEAUFORT LAB     0548   61 64  350/  9/ 15 1009.4
30 SE NEW RVR IN 0508   65     290/ 17/ 23 1009.7
30 SE NEW RVR IN 0543      65                N/A     7/11   2/11
27 SE WRIGHTSVLE 0508   64 62  280/ 16/ 21 1009.2
5 SE WRIGHTSVLE  0508   63 59  290/ 12/ 17 1010.6
225 S CAPE HAT   0550   72 71  240/ 16/ 19 1011.8    7/ 9   5/ 9
41 SE CHARLESTON 0550   65 69  310/ 19/ 23 1013.0    6/10   3/10

$$



USA.gov is the U.S. government's official web portal to all federal, state and local government web resources and services.